Weather observations for the past three days for
Rochester - Skyhaven Airport
Imperial (Metric)
Date Time (edt) Wind (mph) Vis. (mi.) Weather Sky Cond. Temperature (ºF) Relative Humidity Wind Chill (°F) Heat Index (°F) Pressure Precipitation (in)
Air Dwpt 6 hour altimeter (in) sea level (mb) 1 hr 3 hr 6 hr
Max. Min.
20 15:51 Vrbl 6 10.00 Fair CLR 88 55.9 34% 86 29.99 1015.0
20 14:51 Vrbl 6 10.00 Fair CLR 84.9 55 36% 84 30.01 1015.9
20 13:51 Vrbl 6 G 17 10.00 A Few Clouds FEW060 86 55.9 87.1 73 36% 85 30.03 1016.5
20 12:51 Vrbl 7 10.00 Partly Cloudy SCT050 84.9 57.9 40% 84 30.04 1017.0
20 11:51 Vrbl 7 10.00 A Few Clouds FEW050 82.9 57.9 43% 83 30.06 1017.4
20 10:51 NW 8 10.00 Fair CLR 82 55.9 41% 82 30.07 1017.6
20 09:51 NW 9 10.00 Fair CLR 80.1 57 45% 80 30.07 1017.8
20 08:51 SW 5 10.00 Fair CLR 75.9 61 60% 78 30.09 1018.4
20 07:51 Calm 10.00 Fair CLR 73 59 73 57.9 62% 30.09 1018.5
20 06:51 Calm 10.00 Fair CLR 66 57.9 75% 30.08 1018.3
20 05:51 Calm 10.00 Fair CLR 60.1 55 84% 30.08 1018.2
20 04:51 NW 3 10.00 A Few Clouds FEW065 60.1 55 84% 30.08 1018.1
20 03:51 NW 3 10.00 Fair CLR 61 55 81% 30.08 1018.1
20 02:51 NW 6 10.00 Fair CLR 60.1 55 84% 30.08 1018.3
20 01:51 NW 6 10.00 A Few Clouds FEW070 62.1 55.9 78.1 62.1 80% 30.08 1018.1
20 00:51 Calm 10.00 A Few Clouds FEW070 63 57 81% 30.08 1018.3
19 23:51 Calm 10.00 A Few Clouds FEW070 66 59 78% 30.08 1018.2
19 22:51 Calm 10.00 Fair CLR 69.1 59 70% 30.08 1018.1
19 21:51 S 3 10.00 Fair CLR 71.1 59 66% 30.08 1018.3
19 20:51 Calm 10.00 Fair CLR 73 59 62% 30.07 1017.9
19 19:51 Calm 10.00 Fair CLR 77 59 87.1 77 54% 79 30.05 1017.3
19 18:51 S 3 10.00 Fair CLR 80.1 59 49% 81 30.05 1017.1
19 17:51 Vrbl 6 10.00 A Few Clouds FEW075 82.9 59 44% 83 30.04 1016.7
19 16:51 S 7 10.00 Partly Cloudy SCT075 86 60.1 42% 86 30.03 1016.3
19 15:51 Calm 10.00 A Few Clouds FEW070 84 52 33% 82 30.03 1016.5
19 14:51 Calm 10.00 A Few Clouds FEW070 82.9 54 37% 82 30.04 1016.8
19 13:51 NW 9 G 17 10.00 A Few Clouds FEW060 84.9 55 84.9 69.1 36% 84 30.05 1017.0
19 12:51 NW 7 10.00 Partly Cloudy SCT060 82 55 40% 81 30.06 1017.3
19 11:51 Calm 10.00 Fair CLR 82 55 40% 81 30.06 1017.5
19 10:51 Vrbl 6 10.00 Fair CLR 80.1 55 42% 80 30.07 1017.6
19 09:51 NW 6 10.00 Fair CLR 75.9 57.9 54% 78 30.07 1017.6
19 08:51 Vrbl 7 10.00 Fair CLR 73 57.9 59% 30.06 1017.4
19 07:51 NW 9 10.00 Fair CLR 69.1 55.9 69.1 60.1 63% 30.05 1017.2
19 06:51 NW 9 10.00 Fair CLR 64.9 55 70% 30.03 1016.5
19 05:51 NW 5 10.00 Fair CLR 60.1 53.1 78% 30.01 1016.0
19 04:51 W 7 10.00 Fair CLR 64 52 65% 29.99 1015.1
19 03:51 Calm 10.00 Fair CLR 64.9 52 63% 29.99 1015.0
19 02:51 NW 13 G 20 10.00 Fair CLR 66.9 52 59% 29.98 1014.6
19 01:51 NW 9 10.00 Fair CLR 66 53.1 79 64.9 63% 29.98 1014.7
19 00:51 NW 7 10.00 Fair CLR 68 55.9 65% 29.98 1014.6
18 23:51 NW 6 10.00 Fair CLR 66 57 73% 29.96 1014.1
18 22:51 NW 6 10.00 Fair CLR 69.1 59 70% 29.94 1013.4
18 21:51 Calm 10.00 NULL NULL 73.9 57.9 57% 29.93 1012.9
18 20:51 NW 7 10.00 Fair CLR 77 57.9 52% 79 29.9 1012.0
18 19:51 NW 6 10.00 A Few Clouds FEW070 79 59 91 79 50% 80 29.87 1011.0
18 18:51 NW 6 10.00 Fair CLR 84 55 37% 83 29.85 1010.4
18 17:51 Vrbl 6 G 18 10.00 Fair CLR 86 54 33% 84 29.84 1009.9
18 16:51 Vrbl 7 10.00 Fair CLR 87.1 57.9 37% 86 29.83 1009.5
18 15:51 W 10 G 18 10.00 Fair CLR 89.1 59 36% 88 29.83 1009.5
18 14:51 Vrbl 3 10.00 Partly Cloudy SCT070 90 57.9 34% 89 29.82 1009.4
18 13:51 NW 13 10.00 Fair CLR 87.1 57 90 77 36% 86 29.83 1009.6
18 12:51 NW 10 10.00 Fair CLR 88 60.1 39% 88 29.82 1009.4
18 11:51 NW 14 G 22 10.00 Fair CLR 86 61 43% 86 29.83 1009.7
18 10:51 NW 12 10.00 Fair CLR 84 64 51% 85 29.82 1009.3
18 09:51 W 8 10.00 Mostly Cloudy BKN090 81 68 65% 84 29.81 1009.0
18 08:51 NW 6 10.00 A Few Clouds FEW095 79 71.1 77% 82 29.81 1008.8
18 07:51 Calm 10.00 Partly Cloudy SCT075 77 71.1 77 73.9 82% 79 29.82 1009.2
18 06:51 Calm 10.00 Overcast BKN075 OVC090 75 70 84% 75 29.79 1008.4
18 05:51 Calm 10.00 Overcast BKN065 OVC090 73.9 70 88% 29.78 1007.9
18 04:51 Calm 9.00 Overcast FEW048 OVC060 73.9 70 88% 29.76 1007.4
18 03:51 Calm 10.00 Overcast OVC100 73.9 70 88% 29.74 1006.6
18 02:51 Calm 9.00 Overcast FEW003 BKN070 OVC095 75 71.1 88% 75 29.76 1007.2
18 01:51 Calm 9.00 Overcast OVC090 75 72 81 75 90% 74 29.77 1007.5 0.07
17 23:51 Calm 10.00 Partly Cloudy SCT120 75.9 72 88% 76 29.78 1007.8
17 22:51 Calm 10.00 Overcast OVC100 75.9 72 88% 76 29.78 1008.0 0.07
17 21:51 Calm 10.00 A Few Clouds FEW100 FEW120 77 72 85% 78 29.79 1008.2 0.03
17 20:51 Calm 6.00 Light Rain SCT110 78.1 73 85% 81 29.79 1008.3 0.04
17 19:51 Vrbl 3 10.00 Light Rain BKN110 81 71.1 95 81 72% 85 29.8 1008.4
17 18:51 Calm 10.00 Fair CLR 87.1 72 61% 94 29.77 1007.5
17 17:51 Vrbl 3 10.00 Fair CLR 89.1 70 53% 94 29.75 1007.1
17 16:51 S 9 10.00 Fair CLR 91.9 69.1 47% 97 29.76 1007.1
Date Time (edt) Wind (mph) Vis. (mi.) Weather Sky Cond. Air Dwpt Max. Min. Relative Humidity Wind Chill (°F) Heat Index (°F) altimeter (in) sea level (mb) 1 hr 3 hr 6 hr
6 hour
Temperature (ºF) Pressure Precipitation (in)